Theta_e
310 310 310 310 311 311 311 311 312 312 312 312 312 313 314 314 315 319 328 322 319 316 316 319 320 320 320 320 321 321 314 315 319 323 327 330 327 329 329 329 336 339 342 345 348
310 310 310 310 311 311 312 312 312 312 312 312 313 313 314 314 316 319 327 327 318 315 316 318 320 321 320 320 320 318 314 316 319 321 321 324 326 328 328 328 332 344 347 348 347
310 310 310 310 311 311 312 312 312 313 313 313 313 314 315 314 320 324 322 317 316 315 320 321 321 321 320 321 321 321 315 317 321 324 324 324 325 327 326 324 328 333 345 346 346
310 310 310 311 311 312 312 312 313 313 313 314 314 314 316 315 325 322 318 316 316 316 318 321 321 320 319 318 324 322 322 322 324 324 324 320 324 325 327 327 328 329 332 344 344
309 310 310 311 311 312 312 312 313 313 313 314 315 316 315 322 327 323 317 317 317 319 320 320 320 321 319 321 323 322 320 324 324 324 324 324 323 324 326 327 328 328 328 330 343
309 310 310 311 311 312 312 313 313 313 313 314 316 317 316 326 323 322 319 321 323 322 322 320 321 322 322 322 321 323 323 323 324 324 324 322 322 324 325 327 328 328 328 328 328
309 309 310 311 312 312 312 313 313 314 314 314 316 316 316 325 322 322 321 321 322 322 323 323 322 322 322 319 324 324 320 319 321 324 324 326 323 323 327 328 328 328 328 328 328
309 309 310 311 312 312 313 313 314 314 314 314 315 316 326 321 320 321 322 323 322 322 322 322 322 321 322 323 322 320 319 317 320 325 326 325 321 324 330 330 329 330 339 339 337
308 309 310 311 311 312 314 316 316 315 314 315 321 328 329 322 322 323 322 323 323 321 321 322 320 320 321 320 319 320 319 320 325 325 326 323 323 332 334 336 338 343 348 347 348
308 309 310 311 312 314 319 320 322 317 318 317 322 326 328 326 325 323 322 322 322 322 322 322 322 319 318 318 320 321 323 322 324 325 323 329 332 331 335 336 338 341 338 341 343
308 309 310 311 312 319 319 320 320 325 321 325 324 324 326 325 323 324 322 322 321 322 321 323 321 321 324 323 323 323 323 324 326 324 325 333 334 332 334 335 337 342 337 334 334
308 309 310 311 314 319 319 318 318 318 318 321 322 322 322 324 324 323 321 322 323 322 323 322 322 323 324 325 325 325 325 323 324 325 332 334 333 333 333 331 333 337 346 346 345
308 309 310 311 318 319 320 317 317 319 320 325 321 320 322 323 324 324 322 322 323 322 321 323 323 325 325 324 326 325 326 324 324 324 329 332 332 334 334 333 334 342 344 344 344
308 309 310 311 320 320 318 316 316 318 324 326 320 322 323 323 323 324 323 323 325 323 323 324 324 325 325 328 324 326 324 324 325 324 322 330 333 335 335 335 335 336 342 343 343
309 309 310 310 312 318 318 317 317 322 337 322 321 321 322 322 324 323 322 323 323 324 324 324 325 326 326 325 325 324 325 325 325 325 327 334 334 335 334 337 336 335 339 339 339
310 310 310 310 316 318 316 317 319 327 335 326 323 322 321 322 324 323 323 323 324 324 323 322 325 324 325 325 325 326 326 324 325 327 331 334 333 333 334 335 335 335 337 338 338
310 310 310 310 315 317 316 320 326 330 328 325 322 321 321 323 324 323 324 323 324 324 327 326 323 326 327 326 325 325 325 326 329 336 335 332 335 335 335 333 335 334 334 335 337
311 311 310 311 315 316 319 322 330 331 328 326 324 323 324 324 324 324 325 325 326 326 327 331 325 328 327 326 326 327 328 328 329 333 333 333 338 337 335 334 335 332 330 329 331
312 312 311 318 318 315 319 327 329 329 328 326 325 325 325 326 326 326 328 328 326 325 328 329 331 329 328 327 325 329 327 327 328 329 330 333 334 332 332 334 332 331 329 329 328
313 311 317 319 319 317 321 326 328 327 326 327 326 327 326 325 326 326 330 328 328 326 326 330 332 330 329 328 326 328 325 328 327 330 330 333 336 336 337 334 329 327 328 328 328
312 320 320 319 316 320 323 325 325 324 325 328 329 329 328 326 325 330 329 327 326 325 329 328 331 331 329 328 327 324 327 327 327 329 329 330 336 334 330 329 328 328 328 328 328
313 322 322 319 319 321 321 325 323 324 324 327 328 329 329 328 330 330 329 328 326 327 329 328 327 329 329 328 327 328 327 325 323 326 326 328 330 329 328 329 329 329 328 328 328
319 319 322 317 321 322 324 324 323 325 325 326 326 327 328 330 331 331 328 325 325 322 322 324 327 328 326 327 326 326 326 325 326 325 327 329 330 329 329 328 329 329 328 327 327
317 323 321 318 318 321 325 325 323 324 325 325 327 326 326 326 326 327 327 325 323 322 325 329 326 328 328 328 327 326 325 324 325 324 325 327 329 330 329 328 329 328 327 326 325
314 322 325 322 320 320 323 326 324 325 324 324 326 326 326 327 328 327 327 324 325 324 327 327 331 327 326 327 326 326 326 325 325 324 324 325 329 329 327 325 325 326 325 323 321
317 321 321 326 325 323 322 325 326 325 323 325 327 327 326 329 331 332 330 331 331 328 329 329 329 330 329 327 326 327 328 327 326 325 325 326 327 325 324 324 323 322 320 320 318
314 318 319 324 324 325 322 324 326 326 324 326 325 327 328 327 325 325 326 326 326 326 327 327 329 329 329 329 327 329 327 327 325 324 323 328 325 323 322 321 321 318 316 315 315
Wind_Speed
12 13 14 15 16 16 18 18 17 18 18 16 15 15 15 14 8 5 2 5 10 9 2 3 5 5 8 10 11 17 3 7 10 9 6 19 8 16 14 11 17 15 21 23 32
12 13 14 16 16 16 18 18 17 18 17 15 14 14 14 14 9 10 8 10 9 6 4 5 15 13 17 16 16 5 2 9 8 6 7 15 14 11 9 16 11 20 19 29 30
12 14 15 16 17 17 18 18 17 17 16 13 13 13 13 12 10 2 3 4 3 3 3 5 10 14 16 22 23 9 7 10 11 17 19 9 12 15 9 9 17 3 25 28 25
14 14 15 16 17 18 19 18 16 16 15 12 12 11 11 7 4 2 3 4 1 3 4 6 10 18 5 6 15 2 13 16 6 13 12 9 15 11 12 13 18 17 1 21 25
14 14 16 17 18 18 18 17 15 14 14 10 10 9 8 5 8 5 1 3 5 2 4 11 20 18 6 10 9 4 9 12 16 16 10 9 14 9 16 20 12 11 8 4 22
15 16 16 18 18 18 18 16 15 14 12 8 8 7 4 5 3 5 1 4 3 8 13 12 15 18 10 14 6 13 12 14 18 21 11 6 11 7 23 15 10 7 7 5 9
16 16 16 18 18 18 17 15 15 12 9 7 7 6 6 7 6 4 5 4 9 9 14 10 9 11 18 10 13 17 7 9 13 18 5 2 7 9 17 4 8 11 13 4 5
17 17 18 18 18 18 16 15 13 8 6 5 5 4 6 3 6 7 5 7 5 5 9 10 10 14 18 17 21 9 6 5 9 6 5 3 9 7 6 5 6 20 39 44 43
17 17 18 18 17 17 15 14 8 5 3 4 1 4 8 6 4 2 5 10 9 7 8 9 9 11 16 6 7 5 9 9 4 5 3 6 7 18 26 31 30 41 52 44 46
17 18 17 17 16 14 14 12 6 3 2 2 6 6 5 3 4 5 3 7 4 10 10 14 8 3 5 2 5 8 5 6 8 3 8 17 11 16 25 38 27 32 30 27 31
18 18 17 16 13 12 18 7 7 3 10 8 12 9 6 0 3 4 3 4 8 10 7 17 2 5 2 4 6 7 6 6 6 5 11 10 11 19 31 43 34 17 29 15 5
18 18 17 14 7 9 14 13 10 10 11 11 14 16 8 4 4 2 2 7 10 7 10 5 5 2 6 5 6 8 6 7 6 6 11 5 8 11 22 9 28 29 26 26 15
17 18 17 12 2 7 6 10 10 11 5 11 11 13 9 7 8 9 4 8 9 9 11 2 4 2 5 8 6 8 5 5 4 8 7 6 4 3 13 21 35 15 30 32 31
17 17 16 9 1 9 10 12 12 7 2 4 4 4 10 6 5 2 2 7 4 6 8 3 5 4 8 5 8 4 6 7 8 4 6 6 2 6 6 8 24 24 26 32 27
16 17 11 13 9 2 10 16 9 3 2 9 7 9 9 9 8 3 5 7 9 11 3 7 3 3 6 5 5 6 7 5 9 8 6 6 6 5 6 2 3 15 29 31 29
15 16 12 11 10 3 10 9 4 2 3 4 7 7 6 13 3 5 5 7 9 5 7 8 5 1 3 8 8 9 5 8 4 3 3 5 6 5 3 5 10 21 29 29 32
15 15 14 10 7 9 9 10 2 1 7 5 4 9 9 7 4 6 7 6 3 1 5 8 7 5 6 4 10 8 7 5 6 6 3 5 5 8 12 12 14 18 25 28 26
15 15 12 9 7 4 9 2 1 9 5 6 7 11 9 8 6 10 4 2 11 9 5 6 4 2 6 4 4 6 6 4 2 2 5 5 4 3 10 3 23 26 22 20 25
14 12 14 3 5 7 5 1 3 6 5 1 4 5 5 3 4 3 10 8 5 8 5 7 5 2 5 0 2 7 6 3 3 4 4 3 4 4 6 21 15 20 22 20 22
12 12 5 7 4 1 1 5 3 7 10 6 3 3 6 7 4 5 6 7 6 10 12 6 4 3 3 2 5 5 2 8 5 4 5 3 3 4 4 6 7 12 18 20 19
8 6 6 1 3 1 2 5 6 8 10 7 6 6 7 8 5 2 7 8 9 8 12 7 5 9 6 6 6 6 6 6 3 5 2 4 2 3 7 7 8 14 15 11 12
4 3 2 10 2 6 3 4 4 5 2 3 4 5 6 9 9 7 7 5 10 17 4 5 1 4 8 4 10 7 6 6 5 4 1 3 3 7 9 12 12 12 11 12 8
3 7 6 9 2 3 8 5 4 5 2 2 4 7 8 6 5 9 6 10 19 6 3 6 4 4 10 5 10 6 6 5 3 3 1 2 2 8 19 14 11 9 14 16 21
3 3 4 9 11 3 4 4 2 6 8 7 6 5 5 6 5 3 8 5 14 7 3 5 3 1 3 7 4 6 9 6 2 3 2 2 6 7 8 10 13 19 23 24 24
4 6 2 3 6 9 7 5 5 2 6 4 5 6 1 2 0 3 10 7 9 6 2 4 2 7 9 10 8 9 7 5 4 5 5 5 7 4 6 7 17 23 23 25 25
2 5 11 10 7 7 3 4 5 6 3 0 3 7 8 9 7 7 7 7 4 8 4 2 2 6 6 11 6 9 14 13 13 11 9 8 8 9 23 25 23 23 24 24 24
4 15 6 9 3 2 3 4 7 2 3 7 7 4 13 10 17 13 12 10 5 4 5 5 3 4 4 9 8 6 8 8 10 12 7 7 4 17 15 19 19 22 24 23 22
Wind_Direction
327 327 331 330 326 330 326 330 339 329 322 322 321 320 317 315 300 271 294 303 311 311 177 150 244 246 246 258 254 264 6 275 275 324 314 21 28 26 2 340 63 169 157 162 154
326 328 330 328 325 330 325 332 338 328 321 323 321 319 319 320 298 270 285 281 298 274 213 306 302 275 238 245 247 176 169 255 258 331 341 357 9 5 349 334 57 124 137 148 156
323 328 327 328 326 328 325 335 334 327 321 326 322 321 321 326 319 262 295 300 282 210 137 311 305 300 277 266 252 220 220 267 300 341 347 344 349 325 13 339 324 8 156 159 163
325 325 329 328 326 324 328 331 332 325 323 328 323 322 320 321 19 269 355 354 256 187 240 288 279 271 269 259 250 127 297 286 294 324 332 328 322 318 337 288 289 301 317 175 171
321 330 330 327 323 325 328 330 325 324 325 327 324 325 332 297 276 291 27 24 73 113 315 296 294 292 311 314 342 186 258 308 333 313 256 255 282 279 290 280 320 333 343 247 198
329 330 330 326 322 325 328 325 322 324 322 322 324 328 319 275 315 334 230 115 12 311 306 300 306 332 300 326 318 287 305 308 289 284 283 238 258 254 261 269 342 350 302 280 350
329 328 327 323 322 326 327 321 322 321 313 315 318 321 248 261 337 344 9 338 329 293 305 319 350 323 317 315 301 315 312 296 276 260 244 11 313 272 269 45 360 21 4 324 15
326 328 328 327 324 327 325 323 323 319 305 301 308 315 273 186 223 232 262 287 247 293 293 310 313 296 282 277 293 300 290 281 268 200 206 138 292 220 116 59 17 25 39 54 56
328 327 327 326 330 332 331 327 325 323 284 281 278 326 284 256 208 220 274 265 245 286 275 272 293 267 283 288 315 299 256 232 231 112 48 51 346 4 53 60 56 60 60 51 33
328 328 328 328 336 345 352 329 338 3 316 241 228 305 258 244 125 260 249 274 277 282 268 248 250 241 306 80 264 320 350 10 121 132 67 55 24 3 34 40 23 62 61 59 35
329 329 328 330 345 11 17 27 2 38 318 238 286 259 322 88 340 283 169 234 245 258 260 263 182 262 238 358 323 308 311 359 328 97 72 100 60 44 25 31 2 53 64 42 327
328 329 327 334 12 41 30 42 18 329 307 260 259 263 276 285 268 201 264 251 241 260 248 299 235 20 328 282 282 296 314 12 338 20 88 108 50 87 65 28 288 298 94 85 105
326 328 330 336 38 18 36 13 358 330 268 294 220 229 209 221 265 176 197 264 274 287 288 224 152 169 275 292 273 329 48 28 295 314 99 112 0 14 83 16 309 100 95 89 69
325 328 333 340 316 26 52 355 337 332 324 201 203 240 172 212 265 202 235 298 297 283 330 131 117 335 296 349 45 5 25 347 322 333 271 163 248 39 104 210 267 67 89 78 75
325 321 334 328 318 2 343 330 340 348 34 156 164 148 185 216 140 169 221 290 264 288 50 282 80 312 348 15 10 269 325 299 280 286 46 21 60 299 239 253 286 56 79 77 68
318 316 322 314 319 350 344 338 337 32 251 161 132 184 171 225 217 130 222 240 277 301 286 250 102 309 324 299 272 262 298 290 291 28 70 236 115 309 289 256 75 59 61 74 69
310 309 311 306 295 305 337 343 60 183 165 160 169 166 200 192 146 187 204 216 233 254 315 274 198 166 231 318 4 20 33 347 14 28 302 16 63 21 22 284 78 72 64 69 68
308 307 298 298 326 350 10 331 273 280 125 193 181 185 196 172 192 217 248 186 29 27 318 347 103 151 14 31 357 339 110 122 339 166 238 37 132 156 162 195 86 78 77 69 72
309 301 292 8 357 18 320 352 294 334 66 350 281 186 128 80 325 169 83 63 59 26 26 20 342 18 103 32 53 324 18 267 148 302 53 140 66 89 288 16 43 74 63 70 74
317 320 332 139 226 159 312 259 281 20 345 357 299 229 163 181 241 206 79 33 5 36 6 345 336 358 319 207 221 53 334 29 4 17 342 53 29 171 156 180 16 40 63 53 60
322 327 167 243 10 245 235 259 323 63 8 10 348 318 325 157 219 61 58 29 14 7 27 35 62 307 359 7 59 2 30 33 88 77 28 360 338 146 106 69 46 47 49 53 44
293 277 237 182 199 234 223 257 323 90 315 307 295 322 24 33 40 76 72 79 9 32 25 332 50 312 274 306 40 10 93 97 109 320 178 182 287 104 108 87 57 42 36 22 53
253 269 242 171 224 260 290 298 339 335 203 306 316 8 15 41 66 105 105 48 66 56 30 322 352 350 338 21 7 19 5 34 100 86 278 108 336 40 46 34 20 13 44 25 34
277 288 177 197 247 281 309 263 212 325 325 20 2 31 17 33 49 1 116 87 82 86 36 19 358 124 214 257 297 343 327 317 102 120 208 104 104 53 34 66 25 34 36 44 35
228 260 328 203 237 234 278 302 202 165 350 324 17 324 315 6 307 236 125 124 119 125 104 84 346 9 329 321 300 271 284 5 16 67 84 357 76 62 53 42 43 51 49 41 29
261 356 337 304 315 200 247 300 304 154 206 97 290 268 80 68 69 52 62 40 42 41 62 46 309 359 312 283 336 21 48 52 46 39 26 49 72 61 43 38 51 43 34 23 11
243 286 277 285 267 11 213 257 296 238 59 35 211 46 64 63 70 67 72 70 74 86 39 12 12 353 279 333 323 60 13 40 58 40 36 57 16 34 27 23 60 37 22 9 3